DW9822 Weather Reports


time (UTC)temp
F
wind
direction
speed
knots
gust
knots
rain 1hr
in
rain 24hr
in
rain mn
in
humidity
%
barometer
mb
20260506033530 55 98 0.9 0.0 0.00 0.00 0.00 97 1008.8
20260506032606 55 88 1.7 0.0 0.00 0.00 0.00 97 1008.8
20260506032023 55 108 0.9 0.0 0.00 0.00 0.00 97 1008.8
20260506031018 55 105 0.9 0.0 0.00 0.00 0.00 97 1009.3
20260506030053 55 103 0.9 0.0 0.00 0.00 0.00 97 1009.4
20260506024528 55 103 0.9 0.0 0.00 0.00 0.00 97 1009.4
20260506024031 55 100 0.0 0.0 0.00 0.00 0.00 97 1009.5
20260506023525 55 84 0.0 0.0 0.00 0.00 0.00 97 1009.5
20260506023037 55 84 0.9 0.0 0.00 0.00 0.00 97 1009.7
20260506022524 55 90 0.9 0.0 0.00 0.00 0.00 97 1009.9
20260506021538 55 75 0.0 0.0 0.00 0.00 0.00 97 1009.8
20260506021026 55 75 0.0 0.0 0.00 0.00 0.00 97 1009.9
20260506020538 55 88 0.0 0.0 0.00 0.00 0.00 97 1010.1
20260506020025 55 86 0.0 0.0 0.00 0.00 0.00 97 1010.0
20260506015036 55 86 0.0 0.0 0.00 0.00 0.00 97 1009.9
20260506014527 55 86 0.0 0.0 0.00 0.00 0.00 97 1009.9
20260506014036 55 86 0.0 0.0 0.00 0.00 0.00 97 1009.9
20260506013531 55 86 0.0 0.0 0.00 0.00 0.00 97 1010.0
20260506013033 55 86 0.0 0.0 0.00 0.00 0.00 97 1009.9
20260506012522 55 86 0.0 0.0 0.00 0.00 0.00 97 1010.0
20260506012052 55 86 0.0 0.0 0.00 0.00 0.00 97 1010.1
20260506011528 55 86 0.0 0.0 0.00 0.00 0.00 97 1010.0
20260506011029 55 86 0.0 0.0 0.00 0.00 0.00 97 1010.0
20260506010539 55 86 0.0 0.0 0.00 0.00 0.00 97 1010.2
20260506010027 55 86 0.0 0.0 0.00 0.00 0.00 97 1010.1
20260506005534 55 86 0.0 0.0 0.00 0.00 0.00 97 1010.2
20260506005028 55 86 0.0 0.0 0.00 0.00 0.00 97 1010.2
20260506004535 55 75 0.0 0.0 0.00 0.00 0.00 97 1010.2
20260506004035 55 104 0.0 0.0 0.00 0.00 0.00 97 1010.5
20260506003034 55 86 0.0 0.0 0.00 0.00 0.00 97 1010.6
20260506002528 55 86 0.0 0.0 0.00 0.00 0.00 97 1010.7
20260506002030 55 86 0.0 0.0 0.00 0.00 0.00 97 1010.7
20260506001520 55 86 0.0 0.0 0.00 0.00 0.00 97 1010.7
20260506000601 55 86 0.0 0.0 0.00 0.00 0.00 97 1010.7
20260506000019 55 86 0.0 0.0 0.00 0.00 0.00 97 1010.7
20260505235521 55 86 0.0 0.0 0.00 0.00 0.00 97 1010.8
20260505234526 55 86 0.0 0.0 0.00 0.00 0.00 97 1011.0
20260505234056 55 86 0.0 0.0 0.00 0.00 0.00 97 1011.1
20260505233531 55 86 0.0 0.0 0.00 0.00 0.00 97 1011.0
20260505232539 55 86 0.0 0.0 0.00 0.00 0.00 97 1010.9
20260505231534 55 86 0.0 0.0 0.00 0.00 0.00 97 1011.1
20260505231030 55 86 0.0 0.0 0.00 0.00 0.00 97 1011.2
20260505230520 55 86 0.0 0.0 0.00 0.00 0.00 97 1011.2
20260505225528 55 89 0.0 0.0 0.00 0.00 0.00 97 1011.1
20260505225100 55 89 0.0 0.0 0.00 0.00 0.00 97 1011.3
20260505224521 55 89 0.0 0.0 0.00 0.00 0.00 97 1011.3
20260505223531 55 89 0.0 0.0 0.00 0.00 0.00 97 1011.4
20260505223028 54 89 0.0 0.0 0.00 0.00 0.00 97 1011.4
20260505222530 55 89 0.0 0.0 0.00 0.00 0.00 97 1011.4
20260505222023 55 89 0.0 0.0 0.00 0.00 0.00 97 1011.4
20260505221526 54 89 0.0 0.0 0.00 0.00 0.00 97 1011.3
20260505221027 55 89 0.0 0.0 0.00 0.00 0.00 97 1011.4
20260505220525 55 89 0.0 0.0 0.00 0.00 0.00 97 1011.3
20260505220033 54 89 0.0 0.0 0.00 0.00 0.00 97 1011.4
20260505215537 54 89 0.0 0.0 0.00 0.00 0.01 97 1011.4
20260505215029 54 88 0.0 0.0 0.00 0.00 0.01 97 1011.4
20260505214023 54 90 0.0 0.0 0.00 0.00 0.01 97 1011.5
20260505213553 55 90 0.0 0.0 0.00 0.00 0.01 97 1011.6
20260505212535 55 90 0.0 0.0 0.00 0.00 0.01 97 1011.8
20260505212024 55 90 0.0 0.0 0.00 0.00 0.01 96 1011.8
20260505211533 55 90 0.0 0.0 0.00 0.00 0.01 97 1011.9
20260505210521 55 75 0.0 0.0 0.00 0.00 0.01 96 1012.0
20260505210027 55 78 0.0 0.0 0.00 0.00 0.01 96 1012.1
20260505205530 55 78 0.0 0.0 0.00 0.00 0.01 96 1012.2
20260505205029 55 78 0.0 0.0 0.00 0.00 0.01 96 1012.2
20260505204028 55 78 0.0 0.0 0.00 0.00 0.01 96 1012.2
20260505203522 55 78 0.0 0.0 0.00 0.00 0.01 96 1012.2
20260505203026 55 78 0.0 0.0 0.00 0.00 0.01 96 1012.2
20260505202534 55 78 0.0 0.0 0.00 0.00 0.01 96 1012.2
20260505202023 55 78 0.0 0.0 0.00 0.00 0.01 96 1012.2
20260505201521 55 78 0.0 0.0 0.00 0.00 0.01 96 1012.2
20260505201031 55 78 0.0 0.0 0.00 0.00 0.01 96 1012.2
20260505200535 55 78 0.0 0.0 0.00 0.00 0.01 96 1012.2
20260505195534 55 78 0.0 0.0 0.00 0.00 0.01 96 1012.1
20260505195037 55 78 0.0 0.0 0.00 0.00 0.01 96 1012.1
20260505194525 55 78 0.0 0.0 0.00 0.00 0.01 96 1012.0
20260505193046 55 78 0.0 0.0 0.00 0.00 0.01 96 1011.9
20260505192521 55 78 0.0 0.0 0.00 0.00 0.01 96 1011.8
20260505192033 55 78 0.0 0.0 0.00 0.00 0.01 96 1011.8
20260505191543 55 78 0.0 0.0 0.00 0.00 0.01 96 1011.8
20260505191023 55 78 0.0 0.0 0.00 0.00 0.01 96 1011.7
20260505190533 55 78 0.0 0.0 0.00 0.00 0.01 96 1011.6
20260505190023 55 78 0.0 0.0 0.00 0.00 0.01 96 1011.6
20260505185525 55 78 0.0 0.0 0.00 0.00 0.01 96 1011.6
20260505185035 55 88 0.0 0.0 0.00 0.00 0.01 96 1011.6
20260505184526 55 88 0.0 0.0 0.00 0.00 0.01 96 1011.7
20260505184038 55 88 0.0 0.0 0.00 0.00 0.01 96 1011.7
20260505183526 55 88 0.0 0.0 0.00 0.00 0.01 96 1011.7
20260505183025 55 88 0.0 0.0 0.00 0.00 0.01 96 1011.6
20260505182530 55 88 0.0 0.0 0.00 0.00 0.01 96 1011.6
20260505182034 55 88 0.0 0.0 0.00 0.00 0.01 96 1011.6
20260505181540 55 88 0.0 0.0 0.00 0.00 0.01 96 1011.6
20260505181024 55 88 0.0 0.0 0.00 0.00 0.01 96 1011.7
20260505180525 55 88 0.0 0.0 0.00 0.00 0.01 96 1011.7
20260505180037 55 88 0.0 0.0 0.00 0.00 0.01 96 1011.6
20260505175529 55 88 0.0 0.0 0.00 0.00 0.01 95 1011.6
20260505175031 55 88 0.0 0.0 0.00 0.00 0.01 95 1011.6
20260505174521 55 90 0.0 0.0 0.00 0.00 0.01 96 1011.5
20260505174025 55 90 0.0 0.0 0.00 0.00 0.01 96 1011.4
20260505173529 55 90 0.0 0.0 0.00 0.00 0.01 95 1011.6
20260505173030 55 90 0.0 0.0 0.00 0.00 0.01 95 1011.7
20260505172526 55 90 0.0 0.0 0.00 0.00 0.01 95 1011.7
20260505171521 55 89 0.0 0.0 0.00 0.00 0.01 96 1011.7
20260505171029 55 121 0.0 0.0 0.00 0.00 0.01 96 1011.7
20260505170533 55 95 0.0 0.0 0.00 0.00 0.01 96 1011.7
20260505170058 55 92 0.0 0.0 0.00 0.00 0.01 96 1011.6
20260505165522 55 87 0.0 0.0 0.00 0.00 0.01 96 1011.7
20260505165030 55 85 0.0 0.0 0.00 0.00 0.01 96 1011.7
20260505164534 55 84 0.0 0.0 0.00 0.00 0.01 96 1011.7
20260505164021 55 97 0.0 0.0 0.00 0.00 0.01 96 1011.7
20260505163530 55 78 0.0 0.0 0.00 0.00 0.01 96 1011.8
20260505163037 55 84 0.9 0.0 0.00 0.00 0.01 96 1011.8
20260505162528 55 104 0.9 0.0 0.00 0.00 0.01 96 1011.9
20260505162025 55 95 0.9 0.0 0.00 0.00 0.01 96 1011.9
20260505161534 55 96 0.9 0.0 0.00 0.00 0.01 96 1011.9
20260505161054 55 97 0.0 0.0 0.00 0.00 0.01 96 1011.9
20260505153032 55 96 0.9 0.0 0.00 0.00 0.01 96 1012.1
20260505152534 55 118 0.9 0.0 0.00 0.00 0.01 96 1012.1
20260505152045 55 71 0.0 0.0 0.00 0.00 0.01 96 1012.1
20260505151533 55 96 0.9 0.0 0.00 0.00 0.01 96 1012.1
20260505151022 55 69 0.9 0.0 0.00 0.00 0.01 95 1012.2
20260505150522 55 119 1.7 0.0 0.00 0.00 0.01 95 1012.2
20260505125023 55 88 0.0 0.0 0.00 0.00 0.01 94 1012.6
20260505124530 56 61 0.0 0.0 0.00 0.00 0.01 94 1012.6
20260505123532 56 84 0.9 0.0 0.00 0.00 0.01 94 1012.5
20260505123038 56 90 0.9 0.0 0.00 0.00 0.01 94 1012.6
20260505122540 56 94 0.9 0.0 0.00 0.00 0.01 94 1012.5
20260505122032 56 115 0.0 0.0 0.00 0.00 0.01 95 1012.4
20260505121521 56 101 0.0 0.0 0.00 0.00 0.01 95 1012.5
20260505121031 56 101 0.0 0.0 0.00 0.00 0.01 95 1012.6
20260505120524 55 101 0.0 0.0 0.00 0.00 0.01 95 1012.6
20260505120025 55 101 0.0 0.0 0.00 0.00 0.01 95 1012.6
20260505115032 55 92 0.0 0.0 0.00 0.00 0.01 94 1012.7
20260505114519 55 113 0.0 0.0 0.00 0.00 0.01 94 1012.8
20260505114029 56 113 0.0 0.0 0.00 0.00 0.01 94 1012.8
20260505113031 56 103 0.0 0.0 0.00 0.00 0.01 94 1012.8
20260505112518 56 103 0.0 0.0 0.00 0.00 0.01 94 1012.8
20260505112036 56 103 0.0 0.0 0.00 0.00 0.01 94 1012.7
20260505111522 56 103 0.0 0.0 0.00 0.00 0.01 94 1012.8
20260505111035 56 103 0.0 0.0 0.00 0.00 0.01 93 1012.8
20260505110527 56 103 0.0 0.0 0.00 0.00 0.01 94 1012.8
20260505102032 56 103 0.0 0.0 0.00 0.00 0.01 93 1012.8
20260505101537 56 103 0.0 0.0 0.00 0.00 0.01 91 1012.7
20260505101022 56 103 0.0 0.0 0.00 0.00 0.01 93 1012.8
20260505100019 56 103 0.0 0.0 0.00 0.00 0.01 93 1012.7
20260505095534 56 103 0.0 0.0 0.00 0.00 0.01 93 1012.8
20260505095038 56 103 0.0 0.0 0.00 0.00 0.01 94 1012.7
20260505094523 56 103 0.0 0.0 0.00 0.00 0.01 94 1012.6
20260505093523 55 103 0.0 0.0 0.00 0.00 0.01 93 1012.5
20260505093033 55 103 0.0 0.0 0.00 0.00 0.01 93 1012.6
20260505092525 55 103 0.0 0.0 0.00 0.00 0.01 93 1012.7
20260505092037 55 103 0.0 0.0 0.00 0.00 0.01 93 1012.7
20260505091523 55 103 0.0 0.0 0.00 0.00 0.01 93 1012.6
20260505091020 55 103 0.0 0.0 0.00 0.00 0.01 93 1012.5
20260505090529 55 103 0.0 0.0 0.00 0.00 0.01 93 1012.4
20260505090033 55 103 0.0 0.0 0.00 0.00 0.01 93 1012.3
20260505085541 55 103 0.0 0.0 0.00 0.00 0.01 93 1012.4
20260505085018 55 103 0.0 0.0 0.00 0.00 0.01 93 1012.5
20260505084523 54 103 0.0 0.0 0.00 0.00 0.01 93 1012.5
20260505084022 54 103 0.0 0.0 0.00 0.00 0.01 93 1012.4
20260505083038 54 103 0.0 0.0 0.00 0.00 0.01 94 1012.4
20260505082528 54 103 0.0 0.0 0.00 0.00 0.01 93 1012.5
20260505082025 54 103 0.0 0.0 0.00 0.00 0.01 94 1012.5
20260505081531 54 103 0.0 0.0 0.00 0.00 0.01 93 1012.5
20260505081026 54 103 0.0 0.0 0.00 0.00 0.01 94 1012.4
20260505080537 53 103 0.0 0.0 0.00 0.00 0.01 94 1012.4
20260505080021 53 121 0.0 0.0 0.00 0.00 0.01 94 1012.4
20260505075528 53 121 0.0 0.0 0.00 0.00 0.01 94 1012.3
20260505075111 53 121 0.9 0.0 0.00 0.00 0.01 94 1012.2
20260505074537 53 75 0.0 0.0 0.00 0.00 0.01 93 1012.2
20260505074036 53 73 0.0 0.0 0.00 0.00 0.01 93 1012.2
20260505073527 53 73 0.0 0.0 0.00 0.00 0.01 93 1012.2
20260505073033 53 73 0.0 0.0 0.00 0.00 0.01 92 1012.3
20260505072534 53 73 0.0 0.0 0.00 0.00 0.01 92 1012.3
20260505071522 54 73 0.0 0.0 0.00 0.00 0.01 91 1012.4
20260505071022 54 73 0.0 0.0 0.00 0.00 0.01 90 1012.5
20260505070531 54 89 0.0 0.0 0.00 0.00 0.01 92 1012.5
20260505070035 54 89 0.0 0.0 0.00 0.00 0.01 92 1012.6
20260505065527 54 89 0.0 0.0 0.00 0.00 0.01 92 1012.5
20260505065032 54 89 0.0 0.0 0.00 0.00 0.01 91 1012.5
20260505064533 54 89 0.0 0.0 0.00 0.00 0.01 91 1012.3
20260505064033 55 89 0.9 0.0 0.00 0.00 0.01 91 1012.2
20260505062530 55 89 0.0 0.0 0.00 0.00 0.01 89 1012.4
20260505061531 55 89 0.0 0.0 0.00 0.00 0.00 87 1012.3
20260505061024 55 89 0.0 0.0 0.00 0.00 0.00 86 1012.3
20260505060537 56 89 0.0 0.0 0.00 0.00 0.00 86 1012.2
20260505060029 56 89 0.0 0.0 0.00 0.00 0.00 86 1012.0
20260505055535 56 89 0.0 0.0 0.00 0.00 0.00 85 1012.0
20260505054519 56 89 0.0 0.0 0.00 0.00 0.00 84 1012.0
20260505054036 56 89 0.0 0.0 0.00 0.00 0.00 83 1012.0
20260505053537 56 89 0.0 0.0 0.00 0.00 0.00 82 1012.0
20260505053026 56 89 0.0 0.0 0.00 0.00 0.00 81 1011.8
20260505052533 56 89 0.0 0.0 0.00 0.00 0.00 82 1011.8
20260505052058 56 89 0.0 0.0 0.00 0.00 0.00 82 1011.8
20260505051540 56 88 0.0 0.0 0.00 0.00 0.00 84 1011.8
20260505051028 56 88 0.0 0.0 0.00 0.00 0.00 83 1011.6
20260505041531 55 271 0.0 0.0 0.00 0.00 0.00 81 1011.5
20260505041030 55 271 0.0 0.0 0.00 0.00 0.00 80 1011.5
20260505040023 55 271 0.0 0.0 0.00 0.00 0.00 79 1011.5
20260505035537 56 271 0.0 0.0 0.00 0.00 0.00 77 1011.4
20260505035033 56 271 0.0 0.0 0.00 0.00 0.00 77 1011.5
20260505034026 56 271 0.0 0.0 0.00 0.00 0.00 76 1011.5